Location: Carrer del Canonge
(41.4901°N, 2.2931°E)
Time: 04:04:06
(UTC+00:00)

Okean 2 - Pass Details

Date: 18 September 2020
Orbit: 559 x 577 km, 82.5° (Epoch: 25 October)

Event Time Altitude Azimuth Distance (km) Brightness Sun altitude
Rises 18:29:12 0° 354° (N) 2,801 7.1 -7.3°
Reaches altitude 10° 18:31:26 10° 357° (N) 1,896 6.2 -7.7°
Maximum altitude 18:35:35 68° 81° (E) 624 3.4 -8.5°
Drops below altitude 10° 18:39:42 10° 165° (SSE) 1,873 5.8 -9.3°
Sets 18:41:53 0° 167° (SSE) 2,764 6.7 -9.7°
